TimeCDT,TemperatureF,Dew PointF,Humidity,Sea Level PressureIn,VisibilityMPH,Wind Direction,Wind SpeedMPH,Gust SpeedMPH,PrecipitationIn,Events,Conditions,WindDirDegrees,DateUTC
12:15 AM,31.1,24.3,76,30.25,10.0,West,4.6,-,N/A,,Scattered Clouds,260,2013-03-27 05:15:00
12:35 AM,30.4,24.6,79,30.25,10.0,West,4.6,-,N/A,,Scattered Clouds,260,2013-03-27 05:35:00
12:55 AM,30.0,24.8,81,30.25,10.0,West,4.6,-,N/A,,Overcast,270,2013-03-27 05:55:00
1:15 AM,31.1,26.1,82,30.25,10.0,West,4.6,-,N/A,,Overcast,260,2013-03-27 06:15:00
1:35 AM,31.1,26.1,82,30.26,10.0,West,3.5,-,N/A,,Overcast,260,2013-03-27 06:35:00
1:55 AM,32.0,26.6,80,30.25,10.0,West,4.6,-,N/A,,Overcast,270,2013-03-27 06:55:00
2:15 AM,31.8,25.7,78,30.25,10.0,West,4.6,-,N/A,,Overcast,280,2013-03-27 07:15:00
2:35 AM,30.7,25.2,80,30.25,10.0,West,5.8,-,N/A,,Mostly Cloudy,280,2013-03-27 07:35:00
2:55 AM,29.3,24.8,83,30.25,10.0,West,5.8,-,N/A,,Overcast,270,2013-03-27 07:55:00
3:15 AM,29.5,25.2,84,30.25,10.0,Calm,Calm,-,N/A,,Mostly Cloudy,0,2013-03-27 08:15:00
3:35 AM,28.8,24.4,84,30.25,10.0,West,3.5,-,N/A,,Overcast,280,2013-03-27 08:35:00
3:55 AM,29.1,24.6,83,30.25,10.0,West,3.5,-,N/A,,Overcast,270,2013-03-27 08:55:00
4:15 AM,28.8,24.6,84,30.26,10.0,West,3.5,-,N/A,,Mostly Cloudy,260,2013-03-27 09:15:00
4:35 AM,28.4,24.3,84,30.26,10.0,WSW,3.5,-,N/A,,Scattered Clouds,250,2013-03-27 09:35:00
4:55 AM,27.5,24.3,88,30.25,10.0,Calm,Calm,-,N/A,,Scattered Clouds,0,2013-03-27 09:55:00
5:15 AM,27.5,25.0,90,30.26,10.0,West,3.5,-,N/A,,Scattered Clouds,260,2013-03-27 10:15:00
5:35 AM,25.7,23.9,93,30.26,10.0,Calm,Calm,-,N/A,,Scattered Clouds,0,2013-03-27 10:35:00
5:55 AM,25.3,23.7,94,30.26,10.0,Calm,Calm,-,N/A,,Scattered Clouds,0,2013-03-27 10:55:00
6:15 AM,23.9,22.1,93,30.26,10.0,Calm,Calm,-,N/A,,Clear,0,2013-03-27 11:15:00
6:35 AM,23.7,21.6,91,30.26,10.0,Calm,Calm,-,N/A,,Scattered Clouds,0,2013-03-27 11:35:00
6:55 AM,25.3,23.0,91,30.27,10.0,Calm,Calm,-,N/A,,Overcast,0,2013-03-27 11:55:00
7:15 AM,26.8,24.4,91,30.27,10.0,Calm,Calm,-,N/A,,Overcast,0,2013-03-27 12:15:00
7:35 AM,31.8,28.0,86,30.28,10.0,West,3.5,-,N/A,,Overcast,270,2013-03-27 12:35:00
7:55 AM,32.9,26.1,76,30.29,10.0,West,5.8,-,N/A,,Overcast,280,2013-03-27 12:55:00
8:15 AM,33.8,25.9,73,30.29,10.0,WNW,5.8,-,N/A,,Overcast,290,2013-03-27 13:15:00
8:35 AM,34.5,25.5,70,30.30,10.0,West,5.8,-,N/A,,Overcast,280,2013-03-27 13:35:00
8:55 AM,35.1,25.0,67,30.30,10.0,WNW,5.8,-,N/A,,Overcast,300,2013-03-27 13:55:00
9:15 AM,36.3,24.3,62,30.30,10.0,WNW,8.1,-,N/A,,Overcast,300,2013-03-27 14:15:00
9:35 AM,37.6,23.7,57,30.29,10.0,NW,9.2,-,N/A,,Overcast,310,2013-03-27 14:35:00
9:55 AM,38.7,22.8,53,30.30,10.0,WNW,9.2,-,N/A,,Overcast,300,2013-03-27 14:55:00
10:15 AM,39.7,21.9,49,30.30,10.0,WNW,9.2,-,N/A,,Overcast,300,2013-03-27 15:15:00
10:35 AM,41.2,21.2,45,30.30,10.0,NW,9.2,-,N/A,,Overcast,310,2013-03-27 15:35:00
10:55 AM,41.4,18.3,40,30.30,10.0,NNW,10.4,-,N/A,,Overcast,330,2013-03-27 15:55:00
11:15 AM,41.2,15.6,36,30.31,10.0,NNW,6.9,-,N/A,,Overcast,330,2013-03-27 16:15:00
11:35 AM,40.5,15.3,36,30.31,10.0,NNW,5.8,-,N/A,,Overcast,340,2013-03-27 16:35:00
11:55 AM,41.0,16.3,37,30.31,10.0,NW,3.5,-,N/A,,Overcast,310,2013-03-27 16:55:00
12:15 PM,40.6,16.3,37,30.31,10.0,NW,6.9,-,N/A,,Overcast,310,2013-03-27 17:15:00
12:35 PM,41.4,15.8,36,30.31,10.0,WNW,5.8,-,N/A,,Overcast,290,2013-03-27 17:35:00
12:55 PM,41.4,15.6,35,30.31,10.0,NNE,3.5,-,N/A,,Overcast,20,2013-03-27 17:55:00
1:15 PM,41.7,14.5,33,30.31,10.0,WNW,4.6,-,N/A,,Overcast,290,2013-03-27 18:15:00
1:35 PM,41.4,19.8,42,30.30,10.0,NNE,4.6,-,N/A,,Overcast,20,2013-03-27 18:35:00
1:55 PM,41.9,21.0,43,30.30,10.0,NNE,6.9,-,N/A,,Overcast,30,2013-03-27 18:55:00
2:15 PM,41.9,21.7,45,30.30,10.0,NE,5.8,-,N/A,,Overcast,40,2013-03-27 19:15:00
2:35 PM,41.5,21.4,45,30.30,10.0,Calm,Calm,-,N/A,,Overcast,0,2013-03-27 19:35:00
2:55 PM,41.5,21.7,45,30.29,10.0,Calm,Calm,-,N/A,,Overcast,0,2013-03-27 19:55:00
3:15 PM,41.9,19.8,41,30.29,10.0,WNW,3.5,-,N/A,,Overcast,290,2013-03-27 20:15:00
3:35 PM,41.7,18.7,40,30.29,10.0,ENE,3.5,-,N/A,,Overcast,60,2013-03-27 20:35:00
3:55 PM,41.0,20.7,44,30.29,10.0,NNE,8.1,-,N/A,,Overcast,30,2013-03-27 20:55:00
4:15 PM,40.5,20.1,44,30.29,10.0,NNE,5.8,-,N/A,,Overcast,30,2013-03-27 21:15:00
4:35 PM,40.5,19.9,44,30.29,10.0,NE,6.9,-,N/A,,Overcast,50,2013-03-27 21:35:00
4:55 PM,41.0,19.4,42,30.29,10.0,NE,3.5,-,N/A,,Overcast,40,2013-03-27 21:55:00
5:15 PM,40.5,19.6,43,30.29,10.0,NNE,4.6,-,N/A,,Overcast,30,2013-03-27 22:15:00
5:35 PM,40.3,19.4,43,30.29,10.0,Calm,Calm,-,N/A,,Overcast,0,2013-03-27 22:35:00
5:55 PM,40.3,19.6,44,30.29,10.0,NNE,4.6,-,N/A,,Overcast,30,2013-03-27 22:55:00
6:15 PM,40.1,19.8,44,30.29,10.0,ENE,4.6,-,N/A,,Overcast,70,2013-03-27 23:15:00
6:35 PM,39.6,18.7,43,30.29,10.0,NE,3.5,-,N/A,,Overcast,50,2013-03-27 23:35:00
6:55 PM,39.4,18.5,43,30.29,10.0,ENE,3.5,-,N/A,,Overcast,60,2013-03-27 23:55:00
7:15 PM,39.2,18.5,43,30.29,10.0,Calm,Calm,-,N/A,,Overcast,0,2013-03-28 00:15:00
7:35 PM,38.7,19.0,45,30.29,10.0,Calm,Calm,-,N/A,,Overcast,0,2013-03-28 00:35:00
7:55 PM,39.2,19.4,45,30.29,10.0,Calm,Calm,-,N/A,,Overcast,0,2013-03-28 00:55:00
8:15 PM,38.5,20.5,48,30.30,10.0,Calm,Calm,-,N/A,,Overcast,0,2013-03-28 01:15:00
8:35 PM,37.2,22.8,56,30.30,10.0,Calm,Calm,-,N/A,,Overcast,0,2013-03-28 01:35:00
8:55 PM,37.8,21.9,53,30.30,10.0,Calm,Calm,-,N/A,,Overcast,0,2013-03-28 01:55:00
9:15 PM,37.2,21.6,53,30.31,10.0,Calm,Calm,-,N/A,,Overcast,0,2013-03-28 02:15:00
9:35 PM,36.9,22.6,56,30.31,10.0,Calm,Calm,-,N/A,,Overcast,0,2013-03-28 02:35:00
9:55 PM,37.9,20.7,50,30.31,10.0,Calm,Calm,-,N/A,,Overcast,0,2013-03-28 02:55:00
10:15 PM,37.4,20.3,50,30.31,10.0,Calm,Calm,-,N/A,,Overcast,0,2013-03-28 03:15:00
10:35 PM,37.6,20.7,51,30.31,10.0,WNW,5.8,-,N/A,,Overcast,290,2013-03-28 03:35:00
10:55 PM,37.0,21.2,53,30.31,10.0,WNW,3.5,-,N/A,,Overcast,290,2013-03-28 03:55:00
11:15 PM,36.5,20.3,52,30.31,10.0,Calm,Calm,-,N/A,,Scattered Clouds,0,2013-03-28 04:15:00
11:35 PM,34.2,21.2,59,30.31,10.0,West,3.5,-,N/A,,Clear,280,2013-03-28 04:35:00
11:55 PM,33.6,20.5,59,30.31,10.0,West,3.5,-,N/A,,Clear,280,2013-03-28 04:55:00